Weather in Trelew

Argentina     43°15′41″S   65°16′56″W
temp.,
°C
wind,
m/s
gust,
m/s
humid.,
%
clouds,
%
prec.,
mm/h
press.,
hPa
HPBL,
m
26 october, tue
tue2600:00+17wnw7133433 0.0 1005336
03:00+17wnw11183499 0.0 1003717
06:00+16wnw111937100 0.0 1002562
09:00+21w152224100 0.0 10031497
12:00+23w151819100 0.0 10041819
15:00+25w131718100 0.0 10041890
18:00+26wsw12151992 0.0 10051976
21:00+22wsw915261 0.0 1008337
27 october, wed
wed2700:00+20wsw10183565 0.0 1010591
03:00+18wsw815390 0.0 1011369
06:00+15nw33470 0.0 101416
09:00+21w483235 0.0 1016846
12:00+27wnw67233 0.0 10151774
15:00+30wnw58170 0.0 10122740
18:00+29ne109180 0.0 10111009
21:00+21ne611352 0.0 1013293
28 october, thu
thu2800:00+20n5103628 0.0 1014212
03:00+18nnw34420 0.0 101455
06:00+17s33440 0.0 101423
09:00+22sse89260 0.0 1016436
12:00+25se76175 0.0 1016653
15:00+26ese66191 0.0 1014616
18:00+22ese563110 0.0 1013382
21:00+15e610614 0.0 1014246
29 october, fri
fri2900:00+15ene466343 0.0 1013167
03:00+15e44642 0.0 101060
06:00+16ne22640 0.0 100817
09:00+22wsw45400 0.0 1008387
12:00+30sw34180 0.0 10071315
15:00+30se76161 0.0 10061127
18:00+24se791952 0.0 1007395
21:00+17se611425 0.0 1009203
30 october, sat
sat3000:00+16sse595060 0.0 1013182
03:00+10sse17228089 0.0 1016616
06:00+10sse17237526 0.0 1019819
09:00+11se1620551 0.0 1024971
12:00+13sse14155021 0.0 10271196
15:00+12sse1314485 0.0 10281130
18:00+11sse11125749 0.0 10291040
21:00+9sse8117035 0.0 1030847